全部
Bunyip Airport YBUP 天氣
There is no TAF data available at YBUP or any nearby airports.
There is no METAR data available at YBUP. Showing METAR data for YCEM (27 mi W).
YCEM近期METAR歷史資料(YBUP無資料)
| Date | Time (AEST) | Flight Rules | Wind Dir. | Speed | Type | Height AGL (ft) | Visibility | Temp (°C) | Temp (°F) | Dew Point (°C) | Dew Point (°F) | Rel. Humid. | Pressure | Density Altitude | Remarks |
|---|---|---|---|---|---|---|---|---|---|---|---|---|---|---|---|
| 04-五月 | 07:00 | n/a | 10° | 6 kt | Missing | 13° | 55° | 11° | 51° | 88% | 1012 mb | 129 ft | |||
| 04-五月 | 06:00 | n/a | 360° | 4 kt | Missing | 12° | 53° | 11° | 51° | 94% | 1011 mb | 38 ft | |||
| 04-五月 | 05:00 | n/a | 360° | 4 kt | Missing | 12° | 53° | 10° | 50° | 88% | 1012 mb | 9 ft | |||
| 04-五月 | 04:00 | n/a | 10° | 5 kt | Missing | 12° | 53° | 11° | 51° | 94% | 1012 mb | 9 ft | |||
| 04-五月 | 03:00 | n/a | 10° | 5 kt | Missing | 12° | 53° | 11° | 51° | 94% | 1012 mb | 9 ft | |||
| 04-五月 | 02:00 | n/a | 340° | 2 kt | Missing | 10° | 50° | 9° | 48° | 93% | 1012 mb | -231 ft | |||
| 04-五月 | 01:00 | n/a | 360° | 4 kt | Missing | 13° | 55° | 11° | 51° | 88% | 1012 mb | 129 ft | |||
| 04-五月 | 00:00 | n/a | 360° | 4 kt | Missing | 12° | 53° | 10° | 50° | 88% | 1013 mb | -21 ft | |||
| 03-五月 | 23:00 | n/a | 360° | 5 kt | Missing | 14° | 57° | 11° | 51° | 82% | 1013 mb | 219 ft | |||
| 03-五月 | 22:00 | n/a | 10° | 4 kt | Missing | 14° | 57° | 11° | 51° | 82% | 1013 mb | 219 ft | |||
| 03-五月 | 21:00 | n/a | 360° | 4 kt | Missing | 14° | 57° | 11° | 51° | 82% | 1013 mb | 219 ft | |||
| 03-五月 | 20:00 | n/a | 10° | 2 kt | Missing | 13° | 55° | 10° | 50° | 82% | 1013 mb | 99 ft | |||
| 03-五月 | 19:00 | n/a | 350° | 3 kt | Missing | 14° | 57° | 9° | 48° | 72% | 1013 mb | 219 ft | |||
| 03-五月 | 18:00 | n/a | 320° | 7 kt | Missing | 16° | 60° | 9° | 48° | 63% | 1011 mb | 518 ft | |||
| 03-五月 | 17:00 | n/a | 320° | 5 kt | Missing | 17° | 62° | 14° | 57° | 82% | 1011 mb | 638 ft | |||
| 03-五月 | 16:00 | n/a | 310° | 8 kt | Missing | 17° | 62° | 15° | 59° | 88% | 1010 mb | 668 ft | |||
| 03-五月 | 15:00 | n/a | 360° | 9 kt | Missing | 20° | 68° | 17° | 62° | 83% | 1010 mb | 1,028 ft | |||
| 03-五月 | 14:00 | n/a | 10° | 5 kt | Missing | 18° | 64° | 18° | 64° | 100% | 1010 mb | 788 ft | |||
| 03-五月 | 13:00 | n/a | 10° | 7 kt | Missing | 18° | 64° | 15° | 59° | 83% | 1011 mb | 758 ft | |||
| 03-五月 | 12:00 | n/a | 50° | 8 kt | Missing | 17° | 62° | 17° | 62° | 100% | 1011 mb | 638 ft | |||
| 03-五月 | 11:00 | n/a | 360° | 6 kt | Missing | 18° | 64° | 17° | 62° | 94% | 1012 mb | 729 ft | |||
| 03-五月 | 10:00 | n/a | 10° | 5 kt | Missing | 19° | 66° | 15° | 59° | 78% | 1012 mb | 849 ft | |||
| 03-五月 | 09:00 | n/a | 360° | 7 kt | Missing | 21° | 69° | 14° | 57° | 64% | 1012 mb | 1,089 ft | |||
| 03-五月 | 08:00 | n/a | 10° | 9 kt | Missing | 19° | 66° | 15° | 59° | 78% | 1012 mb | 849 ft |
登入
| 您的瀏覽器不支援. 升級您的瀏覽器 |
